Regional Weather Roundup
Issued by NWS

Home | Current Version | Previous Version | Text Only | Print | Product List | Glossary On
Versions: 1 2 3 4 5 6 7 8 9 10 11 12 13 14 15 16 17 18 19 20 21 22 23 24 25 26 27 28 29 30 31 32 33 34 35 36 37 38 39 40 41 42 43 44 45 46 47 48 49 50
000
ASPQ40 PGUM 241412
RWRPQ
WEATHER ROUNDUP FOR THE MARIANAS AND MICRONESIA
NATIONAL WEATHER SERVICE TIYAN GU
1200 AM CHST SAT MAR 25 2017

GUZ001>004-241500-
MARIANA ISLANDS-

CITY           SKY/WX    TMP DP  RH WIND       PRES   REMARKS
GUAM AIRPORT   PTCLDY    81  75  83 E7        29.96F
ANDERSEN AFB   MOCLDY    79  75  89 E9        29.97F
ROTA AIRPORT   NOT AVBL
TINIAN AP      NOT AVBL
SAIPAN AP      PTCLDY    79  73  83 E13       29.92F

$$

PMZ161-241500-
REPUBLIC OF PALAU-

CITY           SKY/WX    TMP DP  RH WIND       PRES   REMARKS
KOROR AP       MOCLDY    81  75  83 NE5       29.89S
KOROR WSO      CLOUDY    82  77  83 N3        29.89F HX  91

$$

PMZ171>174-241500-
FEDERATED STATES OF MICRONESIA-

CITY           SKY/WX    TMP DP  RH WIND       PRES   REMARKS
YAP AIRPORT    MOCLDY    82  75  78 E8        29.91S
CHUUK AP       CLOUDY    81  75  83 NE8       29.88F
POHNPEI AP     NOT AVBL
POHNPEI WSO    MOCLDY    82  79  89 NE5       29.90F HX  93
KOSRAE AP      NOT AVBL

$$

PMZ181-241500-
REPUBLIC OF THE MARSHALL ISLANDS-

CITY           SKY/WX    TMP DP  RH WIND       PRES   REMARKS
KWAJALEIN AP   MOCLDY    82  75  78 E16G22    29.86F
MAJURO AP      NOT AVBL
MAJURO WSO     MOCLDY    82  77  83 NE14      29.81F HX  91

$$




USA.gov is the U.S. government's official web portal to all federal, state and local government web resources and services.